Wind_Speed
12 13 12 12 11 10 9 9 9 9 8 8 7 7 7 7 7 8 9 10 12 13 15 17 19 22 24 27 30 33 35 37 39 41 43 45 48 51 53 55 57 59 61 63
13 13 13 13 13 12 12 11 10 10 9 9 9 8 8 8 8 9 10 11 12 14 15 18 20 23 25 28 31 34 37 39 41 43 45 47 50 53 55 57 60 61 63 65
14 15 15 15 15 14 14 13 12 12 12 11 11 11 11 11 11 11 12 13 14 15 17 19 21 24 27 29 32 35 38 41 43 45 47 50 52 55 58 60 62 64 66 68
15 16 16 16 17 16 15 15 14 14 14 14 14 14 13 14 14 14 15 16 17 18 19 21 23 26 28 30 33 36 39 42 45 47 50 52 54 57 60 62 64 66 68 70
16 17 17 18 18 18 17 17 17 17 17 17 17 17 16 17 17 18 19 20 20 21 22 24 26 28 31 33 35 38 41 44 47 49 51 54 56 59 61 64 66 68 69 71
17 18 19 19 19 19 19 19 20 20 20 19 19 20 19 19 20 21 22 23 24 25 26 28 29 31 34 36 38 40 42 45 48 51 53 55 58 60 63 65 67 69 71 72
18 19 20 20 21 21 21 21 22 23 23 22 23 23 21 22 23 23 25 26 27 29 30 31 33 35 37 39 41 42 44 47 49 52 54 57 59 61 64 66 69 70 72 73
20 20 21 21 22 22 23 23 25 26 26 25 26 26 24 25 26 26 28 29 30 31 33 34 36 38 40 41 43 45 46 48 50 53 56 58 60 63 65 67 70 71 72 73
21 21 22 22 23 24 24 25 27 29 30 30 30 29 26 27 29 30 31 32 33 34 35 37 38 40 42 44 45 47 48 50 51 54 56 59 61 64 66 68 71 72 73 74
23 22 22 23 24 25 27 28 29 31 33 34 33 31 29 29 31 33 34 35 37 37 39 40 41 42 44 46 47 49 50 51 53 55 57 59 61 64 67 69 71 73 74 74
25 25 23 25 26 27 28 29 31 33 36 38 39 34 31 33 35 36 38 39 40 41 42 43 43 45 46 48 49 51 52 53 54 55 57 60 62 65 68 69 72 73 74 74
27 27 26 26 27 29 30 31 33 36 38 41 44 39 32 35 37 40 42 43 44 44 44 45 46 47 48 49 51 52 53 54 55 56 58 60 62 65 68 70 72 73 73 73
30 30 29 28 29 31 33 34 36 39 42 44 46 43 35 37 40 43 46 47 47 46 46 47 48 49 50 51 53 53 54 55 55 56 58 60 63 65 68 70 72 73 73 73
33 32 32 32 32 35 36 36 38 42 44 47 47 46 40 38 43 46 48 49 49 49 49 50 50 51 52 53 54 55 55 56 56 57 59 61 63 65 68 70 72 73 72 72
36 36 35 34 35 39 40 39 39 42 44 48 48 48 45 44 47 48 48 49 50 50 50 51 52 53 53 54 55 56 56 57 57 58 59 61 63 66 68 70 72 72 72 71
39 39 39 38 37 41 44 41 40 42 45 47 49 49 45 47 49 49 49 49 50 50 51 52 54 54 55 56 57 57 57 57 58 59 60 62 64 66 68 70 71 71 70 70
40 42 43 44 42 45 45 40 41 43 44 45 47 47 47 48 49 49 49 50 51 51 52 54 55 55 56 57 58 58 58 58 59 60 61 62 64 66 68 70 71 70 69 69
42 42 45 47 47 50 45 43 43 44 45 45 46 46 47 48 49 49 50 51 51 52 53 55 56 57 57 58 58 59 58 59 60 61 62 64 65 67 68 69 69 69 68 67
44 45 47 50 52 53 47 44 46 48 48 46 48 48 48 49 50 50 51 52 53 54 56 57 58 58 58 59 59 60 60 60 61 62 63 64 65 67 68 68 68 67 67 66
47 48 50 52 55 56 50 49 50 51 51 50 51 50 51 52 54 53 53 54 55 56 58 59 60 60 60 60 60 60 61 61 62 62 63 64 65 66 67 66 66 66 65 64
51 52 53 55 58 58 52 52 53 53 53 54 54 55 56 57 58 59 59 59 60 60 61 62 62 62 61 61 61 61 61 62 63 63 63 63 64 64 65 64 64 64 63 62
54 55 55 56 59 58 54 55 55 57 58 59 59 59 60 61 61 62 62 62 62 63 64 64 64 63 62 62 62 62 62 62 63 63 63 63 63 62 62 62 62 62 60 60
55 56 57 59 59 58 58 59 59 60 63 63 63 62 62 62 62 62 62 62 62 63 63 63 63 62 62 62 62 62 62 62 62 62 62 62 62 61 60 60 60 59 58 57
54 55 57 59 58 57 58 60 61 62 64 64 64 63 62 62 61 61 61 60 60 60 60 60 60 60 59 59 59 59 60 60 60 60 60 60 59 59 59 57 57 56 56 55
52 52 54 55 53 55 56 58 60 61 61 62 61 61 62 61 60 58 57 56 56 56 56 56 56 55 55 56 56 57 58 58 58 58 58 57 57 56 56 54 54 53 53 52
42 45 48 48 47 51 50 51 52 53 54 55 55 55 54 54 54 53 53 53 53 53 53 53 53 53 53 54 54 54 55 55 55 55 56 56 55 54 53 51 50 50 50 50
Wind_Direction
290 289 290 290 288 284 277 267 261 265 273 281 287 291 299 307 316 322 325 328 333 336 339 342 343 343 343 343 342 340 339 337 337 336 336 336 336 335 334 333 331 329 327 326
286 286 288 285 281 275 267 263 262 265 271 276 280 283 291 295 304 312 317 322 328 332 336 339 340 342 343 343 342 341 340 339 338 338 337 337 336 336 335 334 333 331 330 329
284 284 283 279 273 268 264 263 265 267 270 273 276 280 288 292 298 305 310 315 321 327 330 333 336 338 339 341 341 341 341 340 339 339 338 337 337 336 336 335 334 333 332 331
282 282 280 276 271 268 265 264 265 267 269 273 278 281 288 293 296 301 306 312 318 324 327 330 331 333 335 337 339 340 340 340 340 339 339 338 337 337 336 336 335 334 333 333
282 281 278 274 271 268 266 265 266 267 270 274 280 284 289 293 296 301 306 311 317 322 325 326 328 329 331 333 335 337 339 339 339 339 338 338 337 337 337 337 336 335 335 334
281 281 278 274 271 268 266 265 266 267 271 275 279 283 289 293 296 301 307 311 315 319 323 324 326 327 329 331 333 334 336 337 338 337 337 337 337 337 337 337 337 336 336 336
280 280 277 274 271 268 266 266 267 268 272 276 279 283 290 292 296 301 306 310 313 316 319 322 324 326 327 329 330 331 333 334 335 336 336 336 337 337 337 337 338 337 337 337
280 279 277 273 270 268 266 266 268 271 274 276 278 284 291 293 297 300 304 307 310 313 316 319 321 323 324 325 327 329 330 331 333 334 335 335 336 337 337 337 338 338 338 338
282 278 276 273 270 269 267 265 268 271 274 276 279 285 289 293 296 298 301 304 306 310 313 315 318 319 321 322 324 326 327 329 330 332 333 334 335 336 337 338 338 338 338 339
283 280 276 274 272 270 268 268 269 271 275 278 281 285 292 293 294 296 299 301 303 306 310 312 315 316 318 319 321 323 324 326 327 329 331 332 334 335 336 337 338 339 339 340
283 281 278 275 273 271 271 270 271 273 276 280 283 287 294 295 296 296 297 298 301 304 307 309 311 313 314 316 318 320 322 323 325 326 328 330 332 334 335 336 338 339 339 340
283 283 280 277 275 273 272 272 273 275 277 280 284 290 296 295 296 295 295 296 299 302 304 306 308 310 311 313 315 317 319 321 323 324 326 328 330 332 334 336 337 338 339 340
283 283 283 279 277 275 273 273 273 275 278 281 285 292 297 296 294 292 292 295 298 300 302 303 305 307 309 311 313 315 316 318 320 322 324 326 328 331 333 335 336 338 339 340
282 282 283 282 280 277 276 275 276 278 281 284 286 291 292 293 290 289 292 295 297 299 300 301 303 304 306 308 310 312 314 316 318 320 322 324 326 329 332 334 335 337 338 340
281 281 281 281 280 279 279 279 280 282 285 286 289 290 294 292 289 290 292 293 295 296 297 298 300 301 303 306 308 310 312 314 316 318 320 322 324 327 330 333 334 336 337 339
281 282 281 280 280 279 280 284 286 285 286 287 288 290 293 291 291 292 293 293 293 294 295 296 298 299 301 304 306 308 311 312 314 316 318 320 322 325 328 331 333 334 336 338
279 281 282 282 280 279 281 287 286 286 287 289 290 291 290 289 290 291 291 291 292 292 293 294 296 298 300 303 305 307 309 310 312 314 316 318 320 323 326 329 332 333 335 337
280 281 281 283 282 281 286 287 289 288 288 290 290 289 289 289 289 290 290 290 290 291 292 293 294 296 299 301 303 305 306 308 309 312 314 316 318 321 324 327 330 331 333 336
279 280 281 283 283 284 288 291 291 290 289 291 291 289 288 287 287 287 288 289 290 291 291 293 294 296 298 300 301 303 304 306 307 309 311 313 316 319 322 325 328 330 331 334
277 278 279 281 283 286 291 292 292 291 291 289 288 288 287 287 286 287 287 288 288 289 290 292 294 295 297 299 300 302 303 304 305 307 309 311 314 317 320 323 326 328 330 332
278 279 279 281 283 285 290 290 290 290 290 288 287 287 287 287 287 288 289 289 289 290 291 292 294 295 297 298 299 301 302 303 304 306 307 310 312 315 318 321 324 326 328 331
278 279 281 282 282 286 288 287 287 287 286 286 286 286 287 287 288 288 289 289 290 290 291 292 294 295 296 297 298 299 300 301 303 304 306 308 310 313 316 319 321 324 326 329
278 279 280 280 282 285 285 285 285 285 285 286 286 287 287 288 289 289 290 291 291 292 292 293 294 295 295 296 297 297 298 299 301 303 304 306 309 311 314 317 320 321 324 327
280 280 280 282 283 284 283 283 283 283 283 285 287 288 289 289 290 290 291 292 292 293 294 294 294 295 295 296 297 297 298 299 300 302 303 305 308 310 312 316 318 319 321 325
284 285 284 284 286 284 281 280 280 280 282 285 286 288 289 290 291 292 293 293 294 294 294 294 295 295 296 296 297 298 299 300 301 303 304 305 307 309 312 314 316 317 319 323
290 285 282 284 285 284 286 285 283 284 285 286 288 290 291 292 294 295 295 295 295 296 296 295 295 296 297 298 298 299 300 301 302 303 304 304 306 309 311 312 314 315 318 321
Height
5883 5882 5880 5878 5876 5875 5873 5872 5870 5869 5866 5865 5863 5861 5859 5857 5854 5852 5850 5847 5844 5840 5836 5832 5828 5824 5819 5814 5808 5802 5796 5790 5783 5776 5768 5760 5751 5742 5733 5723 5712 5702 5690 5678
5880 5878 5877 5875 5873 5872 5871 5869 5868 5866 5864 5862 5860 5858 5856 5854 5852 5849 5847 5844 5840 5836 5832 5828 5824 5819 5814 5809 5803 5797 5790 5783 5776 5768 5760 5751 5742 5732 5722 5712 5701 5689 5677 5664
5876 5875 5873 5872 5870 5869 5867 5866 5864 5863 5861 5859 5858 5856 5854 5851 5849 5846 5843 5840 5837 5833 5828 5824 5819 5814 5809 5803 5797 5791 5784 5776 5768 5760 5751 5742 5733 5722 5712 5701 5689 5676 5663 5650
5872 5871 5870 5868 5866 5865 5863 5862 5861 5859 5857 5856 5854 5852 5850 5847 5845 5842 5839 5836 5832 5828 5824 5819 5814 5809 5803 5798 5791 5784 5777 5769 5760 5752 5743 5733 5723 5713 5702 5690 5677 5664 5650 5636
5868 5867 5865 5864 5862 5861 5859 5858 5857 5855 5853 5852 5849 5847 5847 5843 5840 5838 5835 5831 5827 5823 5819 5814 5809 5803 5797 5791 5784 5777 5769 5761 5753 5744 5734 5724 5714 5703 5691 5679 5666 5652 5637 5622
5864 5862 5861 5859 5858 5857 5855 5853 5852 5850 5848 5847 5845 5843 5842 5839 5836 5833 5829 5825 5821 5817 5813 5808 5802 5796 5790 5784 5777 5769 5762 5753 5745 5735 5726 5716 5705 5693 5681 5668 5655 5640 5625 5609
5860 5858 5856 5855 5853 5852 5850 5849 5847 5844 5843 5842 5839 5837 5838 5834 5831 5827 5824 5820 5815 5811 5806 5800 5795 5789 5782 5776 5769 5762 5754 5745 5736 5727 5717 5707 5696 5684 5672 5658 5644 5629 5614 5598
5855 5854 5851 5849 5848 5847 5845 5844 5842 5840 5837 5836 5833 5831 5833 5829 5825 5821 5817 5813 5809 5804 5799 5793 5787 5781 5775 5768 5761 5753 5745 5737 5728 5719 5709 5698 5687 5675 5662 5649 5635 5620 5604 5587
5849 5848 5846 5844 5842 5841 5840 5838 5836 5833 5830 5828 5827 5826 5826 5823 5818 5814 5811 5807 5802 5797 5791 5786 5780 5774 5767 5760 5753 5745 5737 5729 5720 5710 5700 5689 5678 5666 5653 5639 5625 5610 5594 5578
5843 5843 5841 5839 5837 5835 5834 5832 5830 5826 5823 5820 5819 5819 5820 5816 5812 5808 5804 5799 5794 5789 5784 5778 5772 5765 5758 5751 5744 5736 5728 5720 5711 5701 5691 5680 5669 5657 5644 5630 5616 5600 5584 5568
5837 5836 5836 5834 5832 5830 5828 5826 5823 5819 5816 5813 5809 5814 5813 5809 5804 5799 5795 5789 5784 5780 5775 5769 5763 5757 5750 5742 5735 5727 5719 5710 5701 5692 5682 5671 5660 5648 5635 5621 5607 5591 5575 5559
5830 5829 5829 5828 5826 5823 5821 5819 5816 5813 5810 5805 5800 5805 5807 5801 5795 5789 5784 5780 5775 5771 5766 5760 5754 5748 5740 5733 5725 5717 5709 5701 5692 5683 5673 5662 5651 5639 5626 5612 5598 5583 5567 5551
5824 5823 5821 5821 5821 5817 5813 5811 5808 5805 5801 5797 5792 5795 5798 5792 5785 5778 5773 5769 5765 5761 5756 5750 5744 5738 5730 5723 5715 5708 5699 5691 5682 5673 5663 5653 5642 5630 5617 5603 5589 5574 5559 5543
5816 5815 5815 5813 5811 5807 5805 5804 5801 5796 5792 5788 5785 5784 5787 5783 5774 5768 5763 5759 5754 5750 5745 5739 5733 5727 5720 5713 5705 5698 5690 5681 5673 5664 5654 5643 5632 5620 5608 5595 5581 5566 5551 5535
5807 5807 5806 5804 5802 5797 5795 5794 5792 5788 5784 5779 5776 5773 5773 5769 5762 5757 5753 5748 5744 5739 5734 5728 5722 5716 5709 5702 5695 5687 5680 5671 5663 5654 5644 5634 5623 5611 5599 5586 5572 5558 5543 5528
5798 5796 5795 5795 5793 5787 5784 5786 5783 5779 5775 5770 5765 5763 5763 5755 5750 5745 5741 5737 5733 5728 5722 5716 5710 5704 5698 5691 5684 5677 5669 5661 5652 5643 5634 5624 5613 5602 5590 5577 5564 5550 5536 5521
5790 5787 5784 5782 5782 5777 5776 5779 5773 5769 5765 5760 5755 5753 5748 5744 5739 5734 5730 5725 5720 5715 5710 5704 5698 5692 5686 5680 5673 5666 5658 5650 5641 5633 5623 5613 5603 5592 5580 5569 5556 5542 5528 5514
5780 5777 5772 5769 5768 5764 5771 5766 5762 5757 5756 5750 5743 5739 5735 5731 5727 5722 5717 5712 5707 5702 5697 5692 5686 5680 5674 5668 5661 5654 5647 5638 5630 5621 5612 5603 5593 5582 5571 5560 5548 5535 5521 5508
5769 5766 5761 5758 5753 5751 5757 5756 5749 5744 5743 5739 5730 5726 5722 5717 5714 5711 5705 5699 5694 5689 5684 5678 5673 5668 5662 5655 5648 5642 5634 5626 5618 5609 5601 5591 5582 5572 5561 5551 5539 5527 5514 5501
5758 5754 5751 5746 5740 5738 5747 5742 5735 5730 5728 5724 5716 5712 5707 5703 5700 5698 5693 5687 5681 5676 5671 5665 5660 5655 5649 5642 5635 5628 5621 5613 5605 5597 5589 5580 5571 5561 5552 5542 5531 5519 5507 5494
5743 5741 5738 5733 5726 5726 5734 5728 5721 5716 5713 5706 5702 5697 5692 5688 5684 5681 5677 5672 5667 5662 5656 5651 5645 5640 5635 5628 5621 5614 5607 5600 5592 5585 5577 5568 5560 5551 5542 5532 5522 5511 5499 5488
5728 5726 5724 5719 5713 5716 5718 5711 5708 5701 5695 5690 5686 5683 5677 5673 5669 5665 5661 5657 5652 5646 5641 5635 5630 5626 5620 5613 5606 5600 5593 5586 5578 5571 5564 5556 5548 5540 5532 5523 5513 5503 5492 5481
5714 5713 5709 5704 5703 5703 5699 5695 5691 5685 5679 5674 5670 5668 5663 5657 5654 5650 5645 5641 5636 5631 5625 5620 5614 5610 5605 5599 5592 5586 5579 5572 5565 5558 5551 5544 5537 5529 5521 5513 5504 5495 5485 5474
5699 5697 5692 5688 5688 5688 5684 5678 5674 5668 5661 5657 5654 5651 5647 5641 5638 5634 5630 5626 5621 5616 5610 5605 5599 5595 5590 5583 5577 5571 5565 5558 5552 5546 5539 5532 5525 5518 5511 5503 5495 5487 5477 5467
5685 5683 5677 5672 5673 5669 5666 5661 5656 5651 5647 5643 5639 5635 5630 5625 5622 5618 5614 5610 5605 5600 5595 5589 5584 5579 5574 5569 5563 5557 5550 5544 5538 5532 5526 5520 5514 5507 5501 5494 5486 5478 5470 5461
5671 5666 5661 5656 5656 5650 5647 5644 5640 5635 5632 5628 5624 5621 5617 5611 5607 5604 5600 5595 5590 5586 5581 5575 5570 5565 5560 5555 5549 5543 5537 5531 5525 5520 5514 5508 5502 5497 5490 5484 5477 5470 5462 5454